User: anonymous   Login
Location: Unspecified
(0.0000°N, 0.0000°E)
Time: 18:32:59
(UTC+00:00)
Language:

Polar - Orbit

View from above orbital plane
View from above orbital plane
View from above satellite
View from above satellite

Ground track
Ground track

The orbit data is extracted from the following two-line orbital elements,

1 23802U 96013A   18342.87064520 -.00000039 +00000-0 +00000-0 0  9997
2 23802 078.6630 258.4739 6903965 302.1222 008.9622 01.29844462109181
Epoch (UTC): 08 December 2018 20:53:43
Eccentricity: 0.6903965
inclination: 78.6630°
perigee height: 4610 km
apogee height: 53615 km
right ascension of ascending node: 258.4739°
argument of perigee: 302.1222°
revolutions per day: 1.29844462
mean anomaly at epoch: 8.9622°
orbit number at epoch: 10918

The dashed part of the orbit path shows where the satellite is in the earth's shadow,  

DLR